Regional Weather Roundup
Issued by NWS

Home | Current Version | Previous Version | Text Only | Print | Product List | Glossary Off
Versions: 1 2 3 4 5 6 7 8 9 10 11 12 13 14 15 16 17 18 19 20 21 22 23 24 25 26 27 28 29 30 31 32 33 34 35 36 37 38 39 40 41 42 43 44 45 46 47 48 49 50

000
ASUS43 KFSD 102002
RWRSD

WEATHER ROUNDUP FOR SOUTH DAKOTA
NATIONAL WEATHER SERVICE SIOUX FALLS SD
200 PM CST SAT DEC 10 2016

NOTE: "FAIR" INDICATES FEW OR NO CLOUDS BELOW 12,000 FEET WITH NO
SIGNIFICANT WEATHER AND/OR OBSTRUCTIONS TO VISIBILITY.


SDZ001>005-009-010-012>017-102100-
NORTHWEST AND NORTH CENTRAL SOUTH DAKOTA

CITY           SKY/WX    TMP DP  RH WIND       PRES   REMARKS
BUFFALO          N/A      5  -2  72 SE17      29.75F WCI -14
FAITH            N/A      3   0  87 E13       29.92F WCI -14
MOBRIDGE       LGT SNOW   3  -5  69 E10       30.07F WCI -12
$$

SDZ012>016-024>037-041>051-057-063-072>074-102100-
SOUTHWEST AND SOUTH CENTRAL SOUTH DAKOTA

CITY           SKY/WX    TMP DP  RH WIND       PRES   REMARKS
RAPID CTY ARPT CLOUDY     6   2  83 SE8       29.81F WCI  -7
PIERRE         CLOUDY     9   4  80 E15       30.02F HAZE    WCI  -8
CUSTER         CLOUDY    37  25  61 W15G22    29.62F
ELLSWORTH AFB  CLOUDY     7   2  80 E9        29.79F WCI  -7
PHILIP         FLURRIES   5   1  83 E14       29.94F WCI -12
PINE RIDGE     CLOUDY    17  12  80 NE8       29.76F WCI   7
SPEARFISH      FAIR       9   3  78 NW6       29.74F WCI  -1
WINNER         CLOUDY    16  12  84 E9        29.96F WCI   4
$$

SDZ004>011-016>023-039-040-102100-
NORTHEAST SOUTH DAKOTA

CITY           SKY/WX    TMP DP  RH WIND       PRES   REMARKS
ABERDEEN       LGT SNOW   5  -2  72 NE15      30.20F WCI -13
WATERTOWN      LGT SNOW   3  -2  79 E10       30.14F VSB 1   WCI -12
BROOKINGS      LGT SNOW   9   5  84 E14       30.16F VSB 1   WCI  -7
SISSETON         N/A      2  -4  76 SE6       30.27F WCI  -9
$$

SDZ017-020-022-023-036>040-048>070-102100-
SOUTHEAST SOUTH DAKOTA

CITY           SKY/WX    TMP DP  RH WIND       PRES   REMARKS
SIOUX FALLS    FLURRIES  15  11  83 E16       30.15F WCI  -1
HURON          FLURRIES  13   9  84 E15       30.10F WCI  -3
CHAMBERLAIN    LGT SNOW  16  13  88 E8G17     30.02F WCI   5
MITCHELL       CLOUDY    17  13  84 E22       30.09F WCI   0
YANKTON        CLOUDY    21  18  86 E15G21    30.08F WCI   8
$$

ABBREVIATIONS USED IN REMARKS
   TC - TEMPERATURE IN CELSIUS
  WCI - WIND CHILL INDEX
   HX - HEAT INDEX
  VSB - VISIBILITY





USA.gov is the U.S. government's official web portal to all federal, state and local government web resources and services.